owner,sensor,date,latitude,longitude,vertical_datum,mass_concentration_of_oxygen_in_sea_water,qcFlag 
DISL,ioos:station:DISL:MHPA:1,2011-03-01T00:00:00Z,30.6671,-87.9365,4.95,9.03,1111122 
DISL,ioos:station:DISL:MHPA:1,2011-03-01T00:30:00Z,30.6671,-87.9365,4.876,8.96,1111122 
DISL,ioos:station:DISL:MHPA:1,2011-03-01T01:00:00Z,30.6671,-87.9365,4.961,8.8,1111122 
DISL,ioos:station:DISL:MHPA:1,2011-03-01T01:30:00Z,30.6671,-87.9365,4.896,8.73,1111122 
DISL,ioos:station:DISL:MHPA:1,2011-03-01T02:00:00Z,30.6671,-87.9365,4.811,8.6,1111122 
DISL,ioos:station:DISL:MHPA:1,2011-03-01T02:30:00Z,30.6671,-87.9365,4.651,8.48,1111122 
DISL,ioos:station:DISL:MHPA:1,2011-03-01T03:00:00Z,30.6671,-87.9365,4.548,8.22,1111122 
DISL,ioos:station:DISL:MHPA:1,2011-03-01T03:30:00Z,30.6671,-87.9365,4.568,8.29,1111122 
DISL,ioos:station:DISL:MHPA:1,2011-03-01T04:00:00Z,30.6671,-87.9365,4.303,8.22,1111122 
DISL,ioos:station:DISL:MHPA:1,2011-03-01T04:30:00Z,30.6671,-87.9365,4.182,8.13,1111122 
DISL,ioos:station:DISL:MHPA:1,2011-03-01T05:00:00Z,30.6671,-87.9365,4.012,8.18,1111122 
DISL,ioos:station:DISL:MHPA:1,2011-03-01T05:30:00Z,30.6671,-87.9365,3.878,8.19,1111122 
DISL,ioos:station:DISL:MHPA:1,2011-03-01T06:00:00Z,30.6671,-87.9365,3.833,8.15,1111122 
DISL,ioos:station:DISL:MHPA:1,2011-03-01T06:30:00Z,30.6671,-87.9365,3.61,8.16,1111122 
DISL,ioos:station:DISL:MHPA:1,2011-03-01T07:00:00Z,30.6671,-87.9365,3.402,8.31,1111122 
DISL,ioos:station:DISL:MHPA:1,2011-03-01T07:30:00Z,30.6671,-87.9365,3.206,8.4,1111122 
DISL,ioos:station:DISL:MHPA:1,2011-03-01T08:00:00Z,30.6671,-87.9365,3.02,8.48,1111122 
DISL,ioos:station:DISL:MHPA:1,2011-03-01T08:30:00Z,30.6671,-87.9365,2.831,8.38,1111122 
DISL,ioos:station:DISL:MHPA:1,2011-03-01T09:00:00Z,30.6671,-87.9365,2.664,7.99,1111122 
DISL,ioos:station:DISL:MHPA:1,2011-03-01T09:30:00Z,30.6671,-87.9365,2.532,8.47,1111122 
DISL,ioos:station:DISL:MHPA:1,2011-03-01T10:00:00Z,30.6671,-87.9365,2.424,8.83,1111122 
DISL,ioos:station:DISL:MHPA:1,2011-03-01T10:30:00Z,30.6671,-87.9365,2.32,8.53,1111122 
DISL,ioos:station:DISL:MHPA:1,2011-03-01T11:00:00Z,30.6671,-87.9365,2.224,8.69,1111122 
DISL,ioos:station:DISL:MHPA:1,2011-03-01T11:30:00Z,30.6671,-87.9365,2.135,8.53,1111122 
DISL,ioos:station:DISL:MHPA:1,2011-03-01T12:00:00Z,30.6671,-87.9365,2.056,8.39,1111122 
DISL,ioos:station:DISL:MHPA:1,2011-03-01T12:30:00Z,30.6671,-87.9365,1.963,8.12,1111122 
DISL,ioos:station:DISL:MHPA:1,2011-03-01T13:00:00Z,30.6671,-87.9365,1.88,8.13,1111122 
DISL,ioos:station:DISL:MHPA:1,2011-03-01T13:30:00Z,30.6671,-87.9365,1.805,8.16,1111122 
DISL,ioos:station:DISL:MHPA:1,2011-03-01T14:00:00Z,30.6671,-87.9365,1.72,8.49,1111122 
DISL,ioos:station:DISL:MHPA:1,2011-03-01T14:30:00Z,30.6671,-87.9365,1.64,8.59,1111122 
DISL,ioos:station:DISL:MHPA:1,2011-03-01T15:00:00Z,30.6671,-87.9365,1.58,8.67,1111122 
DISL,ioos:station:DISL:MHPA:1,2011-03-01T15:30:00Z,30.6671,-87.9365,1.545,8.57,1111122 
DISL,ioos:station:DISL:MHPA:1,2011-03-01T16:00:00Z,30.6671,-87.9365,1.529,8.6,1111122 
DISL,ioos:station:DISL:MHPA:1,2011-03-01T16:30:00Z,30.6671,-87.9365,1.508,8.59,1111122 
DISL,ioos:station:DISL:MHPA:1,2011-03-01T17:00:00Z,30.6671,-87.9365,1.521,8.56,1111122 
DISL,ioos:station:DISL:MHPA:1,2011-03-01T17:30:00Z,30.6671,-87.9365,1.627,8.76,1111122 
DISL,ioos:station:DISL:MHPA:1,2011-03-01T18:00:00Z,30.6671,-87.9365,1.821,8.8,1111122 
DISL,ioos:station:DISL:MHPA:1,2011-03-01T18:30:00Z,30.6671,-87.9365,2.013,8.74,1111122 
DISL,ioos:station:DISL:MHPA:1,2011-03-01T19:00:00Z,30.6671,-87.9365,2.134,8.88,1111122 
DISL,ioos:station:DISL:MHPA:1,2011-03-01T19:30:00Z,30.6671,-87.9365,2.282,9.08,1111122 
DISL,ioos:station:DISL:MHPA:1,2011-03-01T20:00:00Z,30.6671,-87.9365,2.427,9.07,1111122 
DISL,ioos:station:DISL:MHPA:1,2011-03-01T20:30:00Z,30.6671,-87.9365,2.561,9.32,1111122 
DISL,ioos:station:DISL:MHPA:1,2011-03-01T21:00:00Z,30.6671,-87.9365,2.71,9.45,1111122 
DISL,ioos:station:DISL:MHPA:1,2011-03-01T21:30:00Z,30.6671,-87.9365,2.87,9.46,1111122 
DISL,ioos:station:DISL:MHPA:1,2011-03-01T22:00:00Z,30.6671,-87.9365,2.984,9.69,1111122 
DISL,ioos:station:DISL:MHPA:1,2011-03-01T22:30:00Z,30.6671,-87.9365,3.107,9.96,1111122 
DISL,ioos:station:DISL:MHPA:1,2011-03-01T23:00:00Z,30.6671,-87.9365,3.247,10.06,1111122 
DISL,ioos:station:DISL:MHPA:1,2011-03-01T23:30:00Z,30.6671,-87.9365,3.365,10.07,1111122 
DISL,ioos:station:DISL:MHPA:1,2011-03-02T00:00:00Z,30.6671,-87.9365,3.504,9.98,1111122 
DISL,ioos:station:DISL:MHPA:1,2011-03-02T00:30:00Z,30.6671,-87.9365,3.635,10.53,1111122 
DISL,ioos:station:DISL:MHPA:1,2011-03-02T01:00:00Z,30.6671,-87.9365,3.782,10.48,1111122 
DISL,ioos:station:DISL:MHPA:1,2011-03-02T01:30:00Z,30.6671,-87.9365,3.903,10.61,1111122 
DISL,ioos:station:DISL:MHPA:1,2011-03-02T02:00:00Z,30.6671,-87.9365,3.994,10.85,1111122 
DISL,ioos:station:DISL:MHPA:1,2011-03-02T02:30:00Z,30.6671,-87.9365,4.041,10.58,1111122 
DISL,ioos:station:DISL:MHPA:1,2011-03-02T03:00:00Z,30.6671,-87.9365,4.104,10.44,1111122 
DISL,ioos:station:DISL:MHPA:1,2011-03-02T03:30:00Z,30.6671,-87.9365,4.125,10.47,1111122 
DISL,ioos:station:DISL:MHPA:1,2011-03-02T04:00:00Z,30.6671,-87.9365,4.12,10.41,1111122 
DISL,ioos:station:DISL:MHPA:1,2011-03-02T04:30:00Z,30.6671,-87.9365,4.094,10.29,1111122 
DISL,ioos:station:DISL:MHPA:1,2011-03-02T05:00:00Z,30.6671,-87.9365,4.089,10.2,1111122 
DISL,ioos:station:DISL:MHPA:1,2011-03-02T05:30:00Z,30.6671,-87.9365,4.029,10.11,1111122 
DISL,ioos:station:DISL:MHPA:1,2011-03-02T06:00:00Z,30.6671,-87.9365,3.963,10.14,1111122 
DISL,ioos:station:DISL:MHPA:1,2011-03-02T06:30:00Z,30.6671,-87.9365,3.853,9.96,1111122 
DISL,ioos:station:DISL:MHPA:1,2011-03-02T07:00:00Z,30.6671,-87.9365,3.746,9.85,1111122 
DISL,ioos:station:DISL:MHPA:1,2011-03-02T07:30:00Z,30.6671,-87.9365,3.591,9.75,1111122 
DISL,ioos:station:DISL:MHPA:1,2011-03-02T08:00:00Z,30.6671,-87.9365,3.466,9.67,1111122 
DISL,ioos:station:DISL:MHPA:1,2011-03-02T08:30:00Z,30.6671,-87.9365,3.333,9.59,1111122 
DISL,ioos:station:DISL:MHPA:1,2011-03-02T09:00:00Z,30.6671,-87.9365,3.193,9.62,1111122 
DISL,ioos:station:DISL:MHPA:1,2011-03-02T09:30:00Z,30.6671,-87.9365,3.068,9.67,1111122 
DISL,ioos:station:DISL:MHPA:1,2011-03-02T10:00:00Z,30.6671,-87.9365,2.973,9.61,1111122 
DISL,ioos:station:DISL:MHPA:1,2011-03-02T10:30:00Z,30.6671,-87.9365,2.904,9.53,1111122 
DISL,ioos:station:DISL:MHPA:1,2011-03-02T11:00:00Z,30.6671,-87.9365,2.821,9.38,1111122 
DISL,ioos:station:DISL:MHPA:1,2011-03-02T11:30:00Z,30.6671,-87.9365,2.723,9.37,1111122 
DISL,ioos:station:DISL:MHPA:1,2011-03-02T12:00:00Z,30.6671,-87.9365,2.645,9.19,1111122 
DISL,ioos:station:DISL:MHPA:1,2011-03-02T12:30:00Z,30.6671,-87.9365,2.601,9.23,1111122 
DISL,ioos:station:DISL:MHPA:1,2011-03-02T13:00:00Z,30.6671,-87.9365,2.592,8.73,1111122 
DISL,ioos:station:DISL:MHPA:1,2011-03-02T13:30:00Z,30.6671,-87.9365,2.599,9.31,1111122 
DISL,ioos:station:DISL:MHPA:1,2011-03-02T14:00:00Z,30.6671,-87.9365,2.575,9.06,1111122 
DISL,ioos:station:DISL:MHPA:1,2011-03-02T14:30:00Z,30.6671,-87.9365,2.549,9.33,1111122 
DISL,ioos:station:DISL:MHPA:1,2011-03-02T15:00:00Z,30.6671,-87.9365,2.572,9.34,1111122 
DISL,ioos:station:DISL:MHPA:1,2011-03-02T15:30:00Z,30.6671,-87.9365,2.629,9.32,1111122 
DISL,ioos:station:DISL:MHPA:1,2011-03-02T16:00:00Z,30.6671,-87.9365,2.711,9.45,1111122 
DISL,ioos:station:DISL:MHPA:1,2011-03-02T16:30:00Z,30.6671,-87.9365,2.786,9.58,1111122 
DISL,ioos:station:DISL:MHPA:1,2011-03-02T17:00:00Z,30.6671,-87.9365,2.895,10.07,1111122 
DISL,ioos:station:DISL:MHPA:1,2011-03-02T17:30:00Z,30.6671,-87.9365,2.95,10.02,1111122 
DISL,ioos:station:DISL:MHPA:1,2011-03-02T18:00:00Z,30.6671,-87.9365,3.043,10.2,1111122 
DISL,ioos:station:DISL:MHPA:1,2011-03-02T18:30:00Z,30.6671,-87.9365,3.071,10.28,1111122 
DISL,ioos:station:DISL:MHPA:1,2011-03-02T19:00:00Z,30.6671,-87.9365,3.141,10.48,1111122 
DISL,ioos:station:DISL:MHPA:1,2011-03-02T19:30:00Z,30.6671,-87.9365,3.212,10.36,1111122 
DISL,ioos:station:DISL:MHPA:1,2011-03-02T20:00:00Z,30.6671,-87.9365,3.245,10.47,1111122 
DISL,ioos:station:DISL:MHPA:1,2011-03-02T20:30:00Z,30.6671,-87.9365,3.301,10.73,1111122 
DISL,ioos:station:DISL:MHPA:1,2011-03-02T21:00:00Z,30.6671,-87.9365,3.394,11.01,1111122 
DISL,ioos:station:DISL:MHPA:1,2011-03-02T21:30:00Z,30.6671,-87.9365,3.371,11.18,1111122 
DISL,ioos:station:DISL:MHPA:1,2011-03-02T22:00:00Z,30.6671,-87.9365,3.351,11.28,1111122 
DISL,ioos:station:DISL:MHPA:1,2011-03-02T22:30:00Z,30.6671,-87.9365,3.3,11.04,1111122 
DISL,ioos:station:DISL:MHPA:1,2011-03-02T23:00:00Z,30.6671,-87.9365,3.323,10.99,1111122 
DISL,ioos:station:DISL:MHPA:1,2011-03-02T23:30:00Z,30.6671,-87.9365,3.345,10.96,1111122 
DISL,ioos:station:DISL:MHPA:1,2011-03-03T00:00:00Z,30.6671,-87.9365,3.333,10.95,1111122 
DISL,ioos:station:DISL:MHPA:1,2011-03-03T00:30:00Z,30.6671,-87.9365,3.416,10.86,1111122 
DISL,ioos:station:DISL:MHPA:1,2011-03-03T01:00:00Z,30.6671,-87.9365,3.508,10.94,1111122 
DISL,ioos:station:DISL:MHPA:1,2011-03-03T01:30:00Z,30.6671,-87.9365,3.576,10.85,1111122 
DISL,ioos:station:DISL:MHPA:1,2011-03-03T02:00:00Z,30.6671,-87.9365,3.563,10.88,1111122 
DISL,ioos:station:DISL:MHPA:1,2011-03-03T02:30:00Z,30.6671,-87.9365,3.661,10.86,1111122 
DISL,ioos:station:DISL:MHPA:1,2011-03-03T03:00:00Z,30.6671,-87.9365,3.702,10.63,1111122 
DISL,ioos:station:DISL:MHPA:1,2011-03-03T03:30:00Z,30.6671,-87.9365,3.74,10.62,1111122 
DISL,ioos:station:DISL:MHPA:1,2011-03-03T04:00:00Z,30.6671,-87.9365,3.747,10.22,1111122 
DISL,ioos:station:DISL:MHPA:1,2011-03-03T04:30:00Z,30.6671,-87.9365,3.784,10.06,1111122 
DISL,ioos:station:DISL:MHPA:1,2011-03-03T05:00:00Z,30.6671,-87.9365,3.78,10.19,1111122 
DISL,ioos:station:DISL:MHPA:1,2011-03-03T05:30:00Z,30.6671,-87.9365,3.726,10.24,1111122 
DISL,ioos:station:DISL:MHPA:1,2011-03-03T06:00:00Z,30.6671,-87.9365,3.731,10.12,1111122 
DISL,ioos:station:DISL:MHPA:1,2011-03-03T06:30:00Z,30.6671,-87.9365,3.761,10.04,1111122 
DISL,ioos:station:DISL:MHPA:1,2011-03-03T07:00:00Z,30.6671,-87.9365,3.719,10.03,1111122 
DISL,ioos:station:DISL:MHPA:1,2011-03-03T07:30:00Z,30.6671,-87.9365,3.677,10.08,1111122 
DISL,ioos:station:DISL:MHPA:1,2011-03-03T08:00:00Z,30.6671,-87.9365,3.63,10.05,1111122 
DISL,ioos:station:DISL:MHPA:1,2011-03-03T08:30:00Z,30.6671,-87.9365,3.495,9.79,1111122 
DISL,ioos:station:DISL:MHPA:1,2011-03-03T09:00:00Z,30.6671,-87.9365,3.427,9.66,1111122 
DISL,ioos:station:DISL:MHPA:1,2011-03-03T09:30:00Z,30.6671,-87.9365,3.298,9.64,1111122 
DISL,ioos:station:DISL:MHPA:1,2011-03-03T10:00:00Z,30.6671,-87.9365,3.102,9.34,1111122 
DISL,ioos:station:DISL:MHPA:1,2011-03-03T10:30:00Z,30.6671,-87.9365,2.992,9.28,1111122 
DISL,ioos:station:DISL:MHPA:1,2011-03-03T11:00:00Z,30.6671,-87.9365,2.984,9.34,1111122 
DISL,ioos:station:DISL:MHPA:1,2011-03-03T11:30:00Z,30.6671,-87.9365,2.935,9.43,1111122 
DISL,ioos:station:DISL:MHPA:1,2011-03-03T12:00:00Z,30.6671,-87.9365,2.87,9.46,1111122 
DISL,ioos:station:DISL:MHPA:1,2011-03-03T12:30:00Z,30.6671,-87.9365,2.814,9.47,1111122 
DISL,ioos:station:DISL:MHPA:1,2011-03-03T13:00:00Z,30.6671,-87.9365,2.818,9.32,1111122 
DISL,ioos:station:DISL:MHPA:1,2011-03-03T13:30:00Z,30.6671,-87.9365,2.902,9.29,1111122 
DISL,ioos:station:DISL:MHPA:1,2011-03-03T14:00:00Z,30.6671,-87.9365,2.956,9.56,1111122 
DISL,ioos:station:DISL:MHPA:1,2011-03-03T14:30:00Z,30.6671,-87.9365,3.003,9.58,1111122 
DISL,ioos:station:DISL:MHPA:1,2011-03-03T15:00:00Z,30.6671,-87.9365,3.116,9.64,1111122 
DISL,ioos:station:DISL:MHPA:1,2011-03-03T15:30:00Z,30.6671,-87.9365,3.196,9.68,1111122 
DISL,ioos:station:DISL:MHPA:1,2011-03-03T16:00:00Z,30.6671,-87.9365,3.318,9.83,1111122 
DISL,ioos:station:DISL:MHPA:1,2011-03-03T16:30:00Z,30.6671,-87.9365,3.57,9.96,1111122 
DISL,ioos:station:DISL:MHPA:1,2011-03-03T17:00:00Z,30.6671,-87.9365,3.809,9.91,1111122 
DISL,ioos:station:DISL:MHPA:1,2011-03-03T17:30:00Z,30.6671,-87.9365,3.928,10.44,1111122 
DISL,ioos:station:DISL:MHPA:1,2011-03-03T18:00:00Z,30.6671,-87.9365,3.944,10.34,1111122 
DISL,ioos:station:DISL:MHPA:1,2011-03-03T18:30:00Z,30.6671,-87.9365,3.979,10.48,1111122 
DISL,ioos:station:DISL:MHPA:1,2011-03-03T19:00:00Z,30.6671,-87.9365,3.984,10.66,1111122 
DISL,ioos:station:DISL:MHPA:1,2011-03-03T19:30:00Z,30.6671,-87.9365,3.977,10.73,1111122 
DISL,ioos:station:DISL:MHPA:1,2011-03-03T20:00:00Z,30.6671,-87.9365,3.901,10.68,1111122 
DISL,ioos:station:DISL:MHPA:1,2011-03-03T20:30:00Z,30.6671,-87.9365,3.899,10.73,1111122 
DISL,ioos:station:DISL:MHPA:1,2011-03-03T21:00:00Z,30.6671,-87.9365,4.06,10.55,1111122 
DISL,ioos:station:DISL:MHPA:1,2011-03-03T21:30:00Z,30.6671,-87.9365,4.055,10.64,1111122 
DISL,ioos:station:DISL:MHPA:1,2011-03-03T22:00:00Z,30.6671,-87.9365,4.067,10.57,1111122 
DISL,ioos:station:DISL:MHPA:1,2011-03-03T22:30:00Z,30.6671,-87.9365,4.127,10.56,1111122 
DISL,ioos:station:DISL:MHPA:1,2011-03-03T23:00:00Z,30.6671,-87.9365,4.087,10.43,1111122 
DISL,ioos:station:DISL:MHPA:1,2011-03-03T23:30:00Z,30.6671,-87.9365,4.018,10.35,1111122 
DISL,ioos:station:DISL:MHPA:1,2011-03-04T00:00:00Z,30.6671,-87.9365,3.978,10.3,1111122 
DISL,ioos:station:DISL:MHPA:1,2011-03-04T00:30:00Z,30.6671,-87.9365,3.931,10.18,1111122 
DISL,ioos:station:DISL:MHPA:1,2011-03-04T01:00:00Z,30.6671,-87.9365,3.94,10.13,1111122 
DISL,ioos:station:DISL:MHPA:1,2011-03-04T01:30:00Z,30.6671,-87.9365,3.999,10.0,1111122 
DISL,ioos:station:DISL:MHPA:1,2011-03-04T02:00:00Z,30.6671,-87.9365,3.98,9.97,1111122 
DISL,ioos:station:DISL:MHPA:1,2011-03-04T02:30:00Z,30.6671,-87.9365,4.064,9.91,1111122 
DISL,ioos:station:DISL:MHPA:1,2011-03-04T03:00:00Z,30.6671,-87.9365,4.134,9.9,1111122 
DISL,ioos:station:DISL:MHPA:1,2011-03-04T03:30:00Z,30.6671,-87.9365,4.116,9.71,1111122 
DISL,ioos:station:DISL:MHPA:1,2011-03-04T04:00:00Z,30.6671,-87.9365,4.108,9.65,1111122 
DISL,ioos:station:DISL:MHPA:1,2011-03-04T04:30:00Z,30.6671,-87.9365,4.099,9.58,1111122 
DISL,ioos:station:DISL:MHPA:1,2011-03-04T05:00:00Z,30.6671,-87.9365,4.041,9.44,1111122 
DISL,ioos:station:DISL:MHPA:1,2011-03-04T05:30:00Z,30.6671,-87.9365,4.02,9.45,1111122 
DISL,ioos:station:DISL:MHPA:1,2011-03-04T06:00:00Z,30.6671,-87.9365,4.029,9.43,1111122 
DISL,ioos:station:DISL:MHPA:1,2011-03-04T06:30:00Z,30.6671,-87.9365,4.027,9.41,1111122 
DISL,ioos:station:DISL:MHPA:1,2011-03-04T07:00:00Z,30.6671,-87.9365,3.966,9.23,1111122 
DISL,ioos:station:DISL:MHPA:1,2011-03-04T07:30:00Z,30.6671,-87.9365,3.881,9.24,1111122 
DISL,ioos:station:DISL:MHPA:1,2011-03-04T08:00:00Z,30.6671,-87.9365,3.834,9.31,1111122 
DISL,ioos:station:DISL:MHPA:1,2011-03-04T08:30:00Z,30.6671,-87.9365,3.799,9.3,1111122 
DISL,ioos:station:DISL:MHPA:1,2011-03-04T09:00:00Z,30.6671,-87.9365,3.756,9.33,1111122 
DISL,ioos:station:DISL:MHPA:1,2011-03-04T09:30:00Z,30.6671,-87.9365,3.765,9.35,1111122 
DISL,ioos:station:DISL:MHPA:1,2011-03-04T10:00:00Z,30.6671,-87.9365,3.828,9.3,1111122 
DISL,ioos:station:DISL:MHPA:1,2011-03-04T10:30:00Z,30.6671,-87.9365,3.801,9.16,1111122 
DISL,ioos:station:DISL:MHPA:1,2011-03-04T11:00:00Z,30.6671,-87.9365,3.685,9.2,1111122 
DISL,ioos:station:DISL:MHPA:1,2011-03-04T11:30:00Z,30.6671,-87.9365,3.612,9.19,1111122 
DISL,ioos:station:DISL:MHPA:1,2011-03-04T12:00:00Z,30.6671,-87.9365,3.562,9.26,1111122 
DISL,ioos:station:DISL:MHPA:1,2011-03-04T12:30:00Z,30.6671,-87.9365,3.496,9.25,1111122 
DISL,ioos:station:DISL:MHPA:1,2011-03-04T13:00:00Z,30.6671,-87.9365,3.417,9.29,1111122 
DISL,ioos:station:DISL:MHPA:1,2011-03-04T13:30:00Z,30.6671,-87.9365,3.417,9.31,1111122 
DISL,ioos:station:DISL:MHPA:1,2011-03-04T14:00:00Z,30.6671,-87.9365,3.46,9.33,1111122 
DISL,ioos:station:DISL:MHPA:1,2011-03-04T14:30:00Z,30.6671,-87.9365,3.539,9.32,1111122 
DISL,ioos:station:DISL:MHPA:1,2011-03-04T15:00:00Z,30.6671,-87.9365,3.683,9.32,1111122 
DISL,ioos:station:DISL:MHPA:1,2011-03-04T15:30:00Z,30.6671,-87.9365,3.74,9.48,1111122 
DISL,ioos:station:DISL:MHPA:1,2011-03-04T16:00:00Z,30.6671,-87.9365,3.705,9.68,1111122 
DISL,ioos:station:DISL:MHPA:1,2011-03-04T16:30:00Z,30.6671,-87.9365,3.793,9.81,1111122 
DISL,ioos:station:DISL:MHPA:1,2011-03-04T17:00:00Z,30.6671,-87.9365,3.867,9.87,1111122 
DISL,ioos:station:DISL:MHPA:1,2011-03-04T17:30:00Z,30.6671,-87.9365,3.946,10.19,1111122 
DISL,ioos:station:DISL:MHPA:1,2011-03-04T18:00:00Z,30.6671,-87.9365,4.016,10.09,1111122 
DISL,ioos:station:DISL:MHPA:1,2011-03-04T18:30:00Z,30.6671,-87.9365,4.082,10.1,1111122 
DISL,ioos:station:DISL:MHPA:1,2011-03-04T19:00:00Z,30.6671,-87.9365,4.137,10.21,1111122 
DISL,ioos:station:DISL:MHPA:1,2011-03-04T19:30:00Z,30.6671,-87.9365,4.168,10.12,1111122 
DISL,ioos:station:DISL:MHPA:1,2011-03-04T20:00:00Z,30.6671,-87.9365,4.233,10.18,1111122 
DISL,ioos:station:DISL:MHPA:1,2011-03-04T20:30:00Z,30.6671,-87.9365,4.296,9.92,1111122 
DISL,ioos:station:DISL:MHPA:1,2011-03-04T21:00:00Z,30.6671,-87.9365,4.377,10.02,1111122 
DISL,ioos:station:DISL:MHPA:1,2011-03-04T21:30:00Z,30.6671,-87.9365,4.381,10.05,1111122 
DISL,ioos:station:DISL:MHPA:1,2011-03-04T22:00:00Z,30.6671,-87.9365,4.393,10.01,1111122 
DISL,ioos:station:DISL:MHPA:1,2011-03-04T22:30:00Z,30.6671,-87.9365,4.444,9.96,1111122 
DISL,ioos:station:DISL:MHPA:1,2011-03-04T23:00:00Z,30.6671,-87.9365,4.367,9.73,1111122 
DISL,ioos:station:DISL:MHPA:1,2011-03-04T23:30:00Z,30.6671,-87.9365,4.304,9.83,1111122 
DISL,ioos:station:DISL:MHPA:1,2011-03-05T00:00:00Z,30.6671,-87.9365,4.283,9.77,1111122 
DISL,ioos:station:DISL:MHPA:1,2011-03-05T00:30:00Z,30.6671,-87.9365,4.287,9.6,1111122 
DISL,ioos:station:DISL:MHPA:1,2011-03-05T01:00:00Z,30.6671,-87.9365,4.387,9.56,1111122 
DISL,ioos:station:DISL:MHPA:1,2011-03-05T01:30:00Z,30.6671,-87.9365,4.34,9.5,1111122 
DISL,ioos:station:DISL:MHPA:1,2011-03-05T02:00:00Z,30.6671,-87.9365,4.384,9.39,1111122 
DISL,ioos:station:DISL:MHPA:1,2011-03-05T02:30:00Z,30.6671,-87.9365,4.542,9.37,1111122 
DISL,ioos:station:DISL:MHPA:1,2011-03-05T03:00:00Z,30.6671,-87.9365,4.631,9.28,1111122 
DISL,ioos:station:DISL:MHPA:1,2011-03-05T03:30:00Z,30.6671,-87.9365,4.619,9.26,1111122 
DISL,ioos:station:DISL:MHPA:1,2011-03-05T04:00:00Z,30.6671,-87.9365,4.596,9.2,1111122 
DISL,ioos:station:DISL:MHPA:1,2011-03-05T04:30:00Z,30.6671,-87.9365,4.594,9.13,1111122 
DISL,ioos:station:DISL:MHPA:1,2011-03-05T05:00:00Z,30.6671,-87.9365,4.61,9.06,1111122 
DISL,ioos:station:DISL:MHPA:1,2011-03-05T05:30:00Z,30.6671,-87.9365,4.744,9.06,1111122 
DISL,ioos:station:DISL:MHPA:1,2011-03-05T06:00:00Z,30.6671,-87.9365,4.83,9.11,1111122 
DISL,ioos:station:DISL:MHPA:1,2011-03-05T06:30:00Z,30.6671,-87.9365,4.714,9.08,1111122 
DISL,ioos:station:DISL:MHPA:1,2011-03-05T07:00:00Z,30.6671,-87.9365,4.586,9.09,1111122 
DISL,ioos:station:DISL:MHPA:1,2011-03-05T07:30:00Z,30.6671,-87.9365,4.555,9.0,1111122 
DISL,ioos:station:DISL:MHPA:1,2011-03-05T08:00:00Z,30.6671,-87.9365,4.563,9.04,1111122 
DISL,ioos:station:DISL:MHPA:1,2011-03-05T08:30:00Z,30.6671,-87.9365,4.578,9.06,1111122 
DISL,ioos:station:DISL:MHPA:1,2011-03-05T09:00:00Z,30.6671,-87.9365,4.824,8.96,1111122 
DISL,ioos:station:DISL:MHPA:1,2011-03-05T09:30:00Z,30.6671,-87.9365,4.741,9.0,1111122 
DISL,ioos:station:DISL:MHPA:1,2011-03-05T10:00:00Z,30.6671,-87.9365,4.465,9.02,1111122 
DISL,ioos:station:DISL:MHPA:1,2011-03-05T10:30:00Z,30.6671,-87.9365,4.445,8.89,1111122 
DISL,ioos:station:DISL:MHPA:1,2011-03-05T11:00:00Z,30.6671,-87.9365,4.338,8.86,1111122 
DISL,ioos:station:DISL:MHPA:1,2011-03-05T11:30:00Z,30.6671,-87.9365,4.176,8.86,1111122 
DISL,ioos:station:DISL:MHPA:1,2011-03-05T12:00:00Z,30.6671,-87.9365,4.057,8.83,1111122 
DISL,ioos:station:DISL:MHPA:1,2011-03-05T12:30:00Z,30.6671,-87.9365,4.051,8.91,1111122 
DISL,ioos:station:DISL:MHPA:1,2011-03-05T13:00:00Z,30.6671,-87.9365,4.153,9.01,1111122 
DISL,ioos:station:DISL:MHPA:1,2011-03-05T13:30:00Z,30.6671,-87.9365,4.347,9.05,1111122 
DISL,ioos:station:DISL:MHPA:1,2011-03-05T14:00:00Z,30.6671,-87.9365,4.377,8.97,1111122 
DISL,ioos:station:DISL:MHPA:1,2011-03-05T14:30:00Z,30.6671,-87.9365,4.447,8.97,1111122 
DISL,ioos:station:DISL:MHPA:1,2011-03-05T15:00:00Z,30.6671,-87.9365,4.496,9.06,1111122 
DISL,ioos:station:DISL:MHPA:1,2011-03-05T15:30:00Z,30.6671,-87.9365,4.432,9.06,1111122 
DISL,ioos:station:DISL:MHPA:1,2011-03-05T16:00:00Z,30.6671,-87.9365,4.496,9.22,1111122 
DISL,ioos:station:DISL:MHPA:1,2011-03-05T16:30:00Z,30.6671,-87.9365,4.415,9.38,1111122 
DISL,ioos:station:DISL:MHPA:1,2011-03-05T17:00:00Z,30.6671,-87.9365,4.415,9.48,1111122 
DISL,ioos:station:DISL:MHPA:1,2011-03-05T17:30:00Z,30.6671,-87.9365,4.556,9.61,1111122 
DISL,ioos:station:DISL:MHPA:1,2011-03-05T18:00:00Z,30.6671,-87.9365,4.654,9.7,1111122 
DISL,ioos:station:DISL:MHPA:1,2011-03-05T18:30:00Z,30.6671,-87.9365,4.744,9.8,1111122 
DISL,ioos:station:DISL:MHPA:1,2011-03-05T19:00:00Z,30.6671,-87.9365,4.77,9.84,1111122 
DISL,ioos:station:DISL:MHPA:1,2011-03-05T19:30:00Z,30.6671,-87.9365,4.834,9.81,1111122 
DISL,ioos:station:DISL:MHPA:1,2011-03-05T20:00:00Z,30.6671,-87.9365,4.83,9.81,1111122 
DISL,ioos:station:DISL:MHPA:1,2011-03-05T20:30:00Z,30.6671,-87.9365,4.819,9.69,1111122 
DISL,ioos:station:DISL:MHPA:1,2011-03-05T21:00:00Z,30.6671,-87.9365,4.709,9.72,1111122 
DISL,ioos:station:DISL:MHPA:1,2011-03-05T21:30:00Z,30.6671,-87.9365,4.604,9.64,1111122 
DISL,ioos:station:DISL:MHPA:1,2011-03-05T22:00:00Z,30.6671,-87.9365,4.77,9.59,1111122 
DISL,ioos:station:DISL:MHPA:1,2011-03-05T22:30:00Z,30.6671,-87.9365,4.725,9.63,1111122 
DISL,ioos:station:DISL:MHPA:1,2011-03-05T23:00:00Z,30.6671,-87.9365,4.629,9.44,1111122 
DISL,ioos:station:DISL:MHPA:1,2011-03-05T23:30:00Z,30.6671,-87.9365,4.9,9.39,1111122 
DISL,ioos:station:DISL:MHPA:1,2011-03-06T00:00:00Z,30.6671,-87.9365,5.792,9.4,1111122 
DISL,ioos:station:DISL:MHPA:1,2011-03-06T00:30:00Z,30.6671,-87.9365,5.202,9.32,1111122 
DISL,ioos:station:DISL:MHPA:1,2011-03-06T01:00:00Z,30.6671,-87.9365,5.049,9.29,1111122 
DISL,ioos:station:DISL:MHPA:1,2011-03-06T01:30:00Z,30.6671,-87.9365,4.971,9.24,1111122 
DISL,ioos:station:DISL:MHPA:1,2011-03-06T02:00:00Z,30.6671,-87.9365,4.453,9.11,1111122 
DISL,ioos:station:DISL:MHPA:1,2011-03-06T02:30:00Z,30.6671,-87.9365,4.378,9.19,1111122 
DISL,ioos:station:DISL:MHPA:1,2011-03-06T03:00:00Z,30.6671,-87.9365,4.486,9.17,1111122 
DISL,ioos:station:DISL:MHPA:1,2011-03-06T03:30:00Z,30.6671,-87.9365,4.375,8.86,1111122 
DISL,ioos:station:DISL:MHPA:1,2011-03-06T04:00:00Z,30.6671,-87.9365,4.351,9.07,1111122 
DISL,ioos:station:DISL:MHPA:1,2011-03-06T04:30:00Z,30.6671,-87.9365,4.118,8.8,1111122 
DISL,ioos:station:DISL:MHPA:1,2011-03-06T05:00:00Z,30.6671,-87.9365,3.983,8.89,1111122 
DISL,ioos:station:DISL:MHPA:1,2011-03-06T05:30:00Z,30.6671,-87.9365,3.871,8.85,1111122 
DISL,ioos:station:DISL:MHPA:1,2011-03-06T06:00:00Z,30.6671,-87.9365,3.872,8.87,1111122 
DISL,ioos:station:DISL:MHPA:1,2011-03-06T06:30:00Z,30.6671,-87.9365,3.794,8.96,1111122 
DISL,ioos:station:DISL:MHPA:1,2011-03-06T07:00:00Z,30.6671,-87.9365,3.631,9.01,1111122 
DISL,ioos:station:DISL:MHPA:1,2011-03-06T07:30:00Z,30.6671,-87.9365,3.471,9.03,1111122 
DISL,ioos:station:DISL:MHPA:1,2011-03-06T08:00:00Z,30.6671,-87.9365,3.371,8.97,1111122 
DISL,ioos:station:DISL:MHPA:1,2011-03-06T08:30:00Z,30.6671,-87.9365,3.297,9.03,1111122 
DISL,ioos:station:DISL:MHPA:1,2011-03-06T09:00:00Z,30.6671,-87.9365,3.258,9.08,1111122 
DISL,ioos:station:DISL:MHPA:1,2011-03-06T09:30:00Z,30.6671,-87.9365,3.082,9.12,1111122 
DISL,ioos:station:DISL:MHPA:1,2011-03-06T10:00:00Z,30.6671,-87.9365,2.941,9.16,1111122 
DISL,ioos:station:DISL:MHPA:1,2011-03-06T10:30:00Z,30.6671,-87.9365,2.755,9.18,1111122 
DISL,ioos:station:DISL:MHPA:1,2011-03-06T11:00:00Z,30.6671,-87.9365,2.615,9.19,1111122 
DISL,ioos:station:DISL:MHPA:1,2011-03-06T11:30:00Z,30.6671,-87.9365,2.586,9.15,1111122 
DISL,ioos:station:DISL:MHPA:1,2011-03-06T12:00:00Z,30.6671,-87.9365,2.565,9.15,1111122 
DISL,ioos:station:DISL:MHPA:1,2011-03-06T12:30:00Z,30.6671,-87.9365,2.528,9.18,1111122 
DISL,ioos:station:DISL:MHPA:1,2011-03-06T13:00:00Z,30.6671,-87.9365,2.408,9.16,1111122 
DISL,ioos:station:DISL:MHPA:1,2011-03-06T13:30:00Z,30.6671,-87.9365,2.233,9.13,1111122 
DISL,ioos:station:DISL:MHPA:1,2011-03-06T14:00:00Z,30.6671,-87.9365,2.113,9.16,1111122 
DISL,ioos:station:DISL:MHPA:1,2011-03-06T14:30:00Z,30.6671,-87.9365,2.031,9.18,1111122 
DISL,ioos:station:DISL:MHPA:1,2011-03-06T15:00:00Z,30.6671,-87.9365,2.009,9.22,1111122 